Dashboard

GC7XB6V - 13# De Blauwbloezen

by Expie

published: Wed, 12 Sep 2018 8:04:00 am

Certitude Solution



Puzzle stats
121 Woo-Hoo!
17 D'Oh!
Latest activity:
Tue, 18 Sep 2018
Note that some of those attempts may have been anonymous.



You can subscribe to an RSS feed for:
 this puzzle
 Expie's puzzles
 puzzles in N50 E004 quadrangle
 puzzles in Vlaams-Brabant
 all puzzles

Your geocaching name is unknown, please sign in to identify yourself. How does it work?

Puzzle solvers, you can certify your solution here:
Show solution 
Show attempts 

(keyword required)
  Stay anonymous

Certified solvers

RankUserTime (Brussels, Europe)
1.DwiggerWed, 12 Sep 2018 8:13:10 am
2.poolenchantiWed, 12 Sep 2018 8:15:06 am
3.KamaSnurkaWed, 12 Sep 2018 8:39:26 am
4.KoidreamWed, 12 Sep 2018 8:41:46 am
5.BriSan.Wed, 12 Sep 2018 8:54:57 am
6.soyoyastWed, 12 Sep 2018 8:57:40 am
7.JoanyoWed, 12 Sep 2018 10:11:49 am
8.GeroMinosWed, 12 Sep 2018 10:16:01 am
9.team fredstromWed, 12 Sep 2018 10:17:56 am
10.johnny lightningWed, 12 Sep 2018 10:21:57 am
11.HuntingBWed, 12 Sep 2018 10:25:18 am
12.EveRan2013Wed, 12 Sep 2018 10:47:08 am
13.Christelle & FionaWed, 12 Sep 2018 10:55:49 am
14.JeankeMotarWed, 12 Sep 2018 11:03:18 am
15.kadeekesWed, 12 Sep 2018 11:17:25 am
16.metkerrekeWed, 12 Sep 2018 11:17:30 am
17.Hannah_NWed, 12 Sep 2018 11:20:21 am
18.Edine4geoWed, 12 Sep 2018 12:43:23 pm
19.krisalninWed, 12 Sep 2018 1:03:41 pm
20.LiaIneWed, 12 Sep 2018 1:36:03 pm
21.badmintonnersWed, 12 Sep 2018 1:42:08 pm
22.Sabbi17Wed, 12 Sep 2018 1:50:24 pm
23.rickrichWed, 12 Sep 2018 2:31:23 pm
24.willy boy1Wed, 12 Sep 2018 2:42:24 pm
25.daniella&julienWed, 12 Sep 2018 3:05:08 pm
26.lifraWed, 12 Sep 2018 3:09:34 pm
27.wandeltrakkerWed, 12 Sep 2018 3:24:07 pm
28.Bruintje.de.beerWed, 12 Sep 2018 3:32:31 pm
29.sponskenWed, 12 Sep 2018 4:39:14 pm
30.heksemie anirca62Wed, 12 Sep 2018 4:48:04 pm
31.de vliegenvangersWed, 12 Sep 2018 5:59:26 pm
32.snollebollekesWed, 12 Sep 2018 6:30:38 pm
33.prins6Wed, 12 Sep 2018 7:49:51 pm
34.lowie49Wed, 12 Sep 2018 7:52:03 pm
35.KHU1Wed, 12 Sep 2018 8:14:16 pm
36.TORRAXWed, 12 Sep 2018 8:16:40 pm
37.haka1Wed, 12 Sep 2018 8:36:01 pm
38.yves2806Wed, 12 Sep 2018 8:39:12 pm
39.de smileyWed, 12 Sep 2018 8:42:36 pm
40.MREBWed, 12 Sep 2018 9:09:39 pm
41.egelshofWed, 12 Sep 2018 9:16:44 pm
42.ErannWed, 12 Sep 2018 9:29:10 pm
43.VOSPAMAWed, 12 Sep 2018 9:58:25 pm
44.tfxerWed, 12 Sep 2018 10:14:54 pm
45.The LevellersWed, 12 Sep 2018 10:20:45 pm
46.LuintoSTWed, 12 Sep 2018 10:32:25 pm
47.OGTariWed, 12 Sep 2018 10:35:02 pm
48.weba25Wed, 12 Sep 2018 10:41:20 pm
49.Stylo & JoskeWed, 12 Sep 2018 10:56:15 pm
50.rommarWed, 12 Sep 2018 11:27:40 pm
51.Joske0304699Wed, 12 Sep 2018 11:49:34 pm
52.machpatThu, 13 Sep 2018 12:20:02 am
53.PoeFThu, 13 Sep 2018 12:29:46 am
54.Tonmar47Thu, 13 Sep 2018 12:40:20 am
55.johannemieThu, 13 Sep 2018 9:17:29 am
56.ZwuzzeThu, 13 Sep 2018 11:05:21 am
57.Ricky50Thu, 13 Sep 2018 11:32:42 am
58.timmy2730Thu, 13 Sep 2018 2:07:30 pm
59.R_JThu, 13 Sep 2018 4:02:11 pm
60.mikee67Thu, 13 Sep 2018 4:19:18 pm
61.Nettles2014Thu, 13 Sep 2018 6:24:27 pm
62.HEYTSEThu, 13 Sep 2018 8:07:59 pm
63.GeellukamajaThu, 13 Sep 2018 10:21:35 pm
64.Scallie73Thu, 13 Sep 2018 10:29:22 pm
65.maguy15Thu, 13 Sep 2018 10:53:56 pm
66.brestFri, 14 Sep 2018 10:39:45 am
67.tinrafFri, 14 Sep 2018 2:58:48 pm
68.akelaindeweerFri, 14 Sep 2018 4:15:47 pm
69.liliremFri, 14 Sep 2018 5:06:00 pm
70.kato3Fri, 14 Sep 2018 6:53:33 pm
71.Dine =)Fri, 14 Sep 2018 8:26:47 pm
72.casiswaryaFri, 14 Sep 2018 9:54:47 pm
73.TeamYarDieFri, 14 Sep 2018 10:18:34 pm
74.famandusSat, 15 Sep 2018 3:10:04 pm
75.sweetjoeSat, 15 Sep 2018 3:48:23 pm
76.2donickySat, 15 Sep 2018 6:05:32 pm
77.golodhSat, 15 Sep 2018 9:01:17 pm
78.DenDulleSat, 15 Sep 2018 10:16:23 pm
79.geo_bartendanielleSat, 15 Sep 2018 10:42:40 pm
80.DEN TROLSun, 16 Sep 2018 12:20:33 pm
81.veromekeSun, 16 Sep 2018 5:33:54 pm
82.CrapionMon, 17 Sep 2018 7:43:56 am
83.lankatrasMon, 17 Sep 2018 12:34:53 pm
84.KLUPPELMon, 17 Sep 2018 6:11:20 pm
85.tripper13Mon, 17 Sep 2018 6:23:09 pm
86.fravanoMon, 17 Sep 2018 8:46:19 pm
87.BergheboyMon, 17 Sep 2018 9:27:07 pm
88.PtitmamanNeroBelgiumTue, 18 Sep 2018 12:57:42 pm
89.tismooizoTue, 18 Sep 2018 1:45:55 pm
90.homeboyTue, 18 Sep 2018 5:33:44 pm
91.AladaubeTue, 18 Sep 2018 5:42:32 pm
92.De woesten en SmurfelTue, 18 Sep 2018 7:10:53 pm
93.Team_Griml0rdTue, 18 Sep 2018 9:41:06 pm
94.tigerententeamTue, 18 Sep 2018 9:57:35 pm
95.RudyDCTue, 18 Sep 2018 11:51:37 pm